Location: Borbetomagus
(49.6328°N, 8.3592°E)
Time: 20:12:03
(UTC+00:00)

Spot 4 - Pass Details

Date: 19 May 2025
Orbit: 699 x 715 km, 98.3° (Epoch: 20 June)

Event Time Altitude Azimuth Distance (km) Brightness Sun altitude
Exits shadow 22:56:50 42° 202° (SSW) 1,007 4.2 -20.1°
Maximum altitude 22:58:13 59° 259° (W) 812 4.0 -20.2°
Drops below altitude 10° 23:02:57 10° 339° (NNW) 2,185 7.5 -20.2°
Sets 23:05:16 0° 343° (NNW) 3,111 8.6 -20.3°
